Miscellaneous Local Product
Issued by NWS North Platte, NE

Home | Current Version | Previous Version | Graphics & Text | Print | Product List | Glossary On
Versions: 1 2 3 4 5 6 7 8 9 10 11 12 13 14 15 16 17 18 19 20 21 22 23 24 25 26 27 28 29 30 31 32 33 34 35 36 37 38 39 40 41 42 43 44 45 46 47 48 49 50
000
AXUS43 KLBF 011910
MISLBF


WESTERN AND NORTH CENTRAL NEBRASKA HOURLY WEATHER ROUNDUP
NATIONAL WEATHER SERVICE NORTH PLATTE NE
100 PM CST THU DEC 01 2016

NOTE: "FAIR" INDICATES FEW OR NO CLOUDS BELOW 12,000 FEET WITH NO
SIGNIFICANT WEATHER AND/OR OBSTRUCTIONS TO VISIBILITY.

NOTE: STATIONS NOT REPORTING VARIABLES SUCH AS SKY/WEATHER OR
PRESSURE ARE PROVIDED BY RAWS AND APRS NETWORKS AND ARE NOT UNDER
NATIONAL WEATHER SERVICE QUALITY CONTROL.

...OBSERVATIONS IN AND NEAR THE EASTERN PANHANDLE OF NEBRASKA...

CITY           SKY/WX    TMP DP  RH WIND       PRES   REMARKS
PINE RIDGE     CLOUDY    34  20  56 W6        29.92F WCI  29
CHADRON        SUNNY     41  13  31 NW12      29.93F
ALLIANCE       SUNNY     39  11  31 W6        29.92F WCI  35
SIDNEY         SUNNY     40  14  34 NW13      29.94F WCI  32
CRESCENT LAKE    N/A     42  13  30 N5G16       N/A
$$

...OBSERVATIONS IN NORTHERN NEBRASKA AND FAR SOUTHERN SOUTH DAKOTA...

CITY           SKY/WX    TMP DP  RH WIND       PRES   REMARKS
WINNER         CLOUDY    31  25  78 MISG      29.97F
VALENTINE      CLOUDY    33  22  63 VRB6      29.95F WCI  28
THEDFORD       SUNNY     41  18  39 NW7       29.94F
AINSWORTH      CLOUDY    32  24  71 NW9       29.95S WCI  24
O`NEILL        CLOUDY    32  26  77 NW8       29.96F WCI  25
ORD            SUNNY     38  21  50 NW7       29.96F WCI  33
BROKEN BOW     SUNNY     42  21  43 NW6       29.95F
VALENTINE NWR    N/A     37  22  54 NW7         N/A  WCI  31
BUTTE            N/A     29  26  86 W9          N/A  WCI  21
HALSEY           N/A     41  17  38 NW3         N/A
CHAMBERS         N/A     34  21  58 W3          N/A
EWING            N/A     32  27  80 NW8         N/A  WCI  25
$$

...OBSERVATIONS IN SOUTHWEST NEBRASKA AND FAR NORTHEAST COLORADO...

CITY           SKY/WX    TMP DP  RH WIND       PRES   REMARKS
HOLYOKE        FAIR      46  12  25 W13G18    29.95F
IMPERIAL       SUNNY     44  13  28 NW13      29.95F
OGALLALA       SUNNY     42  20  41 SW7       29.95F
NORTH PLATTE   SUNNY     39  20  46 W7        29.96F WCI  34
MCCOOK         SUNNY     39  19  44 SW6       29.99F WCI  35
LEXINGTON      SUNNY     41  22  46 W3        29.97F
STAPLETON        N/A     43  19  38 CALM        N/A
GOTHENBURG       N/A     41  19  41 SW3         N/A
CALLAWAY         N/A     44  21  39 W9          N/A
$$

...OBSERVATIONS IN CENTRAL LINCOLN COUNTY AREA...

CITY           SKY/WX    TMP DP  RH WIND       PRES   REMARKS
N.P. AIRPORT   SUNNY     39  20  46 W7        29.96F WCI  34
N.P. DOWNTOWN    N/A     39  23  53 W3          N/A
N.P. SOUTHEAST   N/A     39  22  51 W3          N/A
N.P. HILLCREST   N/A     39  24  55 MISG        N/A
$$

...SOME OBSERVATIONS FROM AROUND THE REGION...

CITY           SKY/WX    TMP DP  RH WIND       PRES   REMARKS
LARAMIE        MOSUNNY   27  10  49 N8        29.87F WCI  19
CHEYENNE       CLOUDY    33  11  39 W8G22     29.89F WCI  26
DENVER         PTSUNNY   39   4  23 NW5       29.92F
AKRON          SUNNY     40   9  28 W12       29.94F WCI  33
SCOTTSBLUFF    SUNNY     39  15  37 NW12      29.94F WCI  32
RAPID CITY     SUNNY     38  20  48 N7        29.91F WCI  33
BISMARCK       CLOUDY    31  28  89 N3        29.99F FOG
PIERRE         CLOUDY    30  26  85 N9        29.97F WCI  22
SIOUX FALLS    CLOUDY    34  30  85 NW12      29.95S WCI  25
OMAHA          CLOUDY    37  26  64 NW9       30.00F WCI  30
GRAND ISLAND   SUNNY     38  24  57 NW6       29.99F WCI  33
KANSAS CITY    PTSUNNY   41  24  51 W9        30.04F
WICHITA        MOSUNNY   51  22  31 E5        30.02F
OKLAHOMA CITY  MOSUNNY   61  25  25 S15       30.00F
DALLAS         SUNNY     65  22  19 SE14G24   30.05F
AMARILLO       SUNNY     47  16  29 NW7       29.96F
DODGE CITY     SUNNY     48  12  23 E6        30.00F
HAYS           SUNNY     42  20  41 S6        30.02F
GOODLAND       SUNNY     42  10  27 S8        29.97F
$$




USA.gov is the U.S. government's official web portal to all federal, state and local government web resources and services.